User: anonymous   Login
Location: Baix
(44.7118°N, 4.7648°E)
Time: 13:20:22
(UTC+00:00)
Language:

Cosmos 1634 Rocket - Orbit

View from above orbital plane
View from above orbital plane
View from above satellite
View from above satellite

Ground track
Ground track

The orbit data is extracted from the following two-line orbital elements,

1 15598U 85022B   20294.75085220 -.00000068 +00000-0 -84855-4 0  9991
2 15598 082.9332 279.0933 0020814 294.5205 238.6922 13.76579160788530
Epoch (UTC): 20 October 2020 18:01:13
Eccentricity: 0.0020814
inclination: 82.9332°
perigee height: 961 km
apogee height: 991 km
right ascension of ascending node: 279.0933°
argument of perigee: 294.5205°
revolutions per day: 13.76579160
mean anomaly at epoch: 238.6922°
orbit number at epoch: 78853

The dashed part of the orbit path shows where the satellite is in the earth's shadow,  

DLR